GW2039 Weather Reports


Display with metric or nautical units.
time (UTC)temp
F
wind
direction
speed
MPH
gust
MPH
rain 1hr
in
rain 24hr
in
rain mn
in
humidity
%
barometer
mb
20260901181600 84 65 3.0 5.0 0.00 0.00 0.00 88 1007.1
20260901181501 84 48 3.0 5.0 0.00 0.00 0.00 88 1007.1
20260901181359 84 48 3.0 5.0 0.00 0.00 0.00 88 1007.1
20260901181301 84 48 3.0 5.0 0.00 0.00 0.00 88 1007.1
20260901181208 84 48 3.0 5.0 0.00 0.00 0.00 88 1007.1
20260901160258 84 60 3.0 7.0 0.00 0.00 0.00 83 1007.0
20260901160200 84 36 4.0 7.0 0.00 0.00 0.00 83 1007.0
20260901160010 84 39 5.0 7.0 0.00 0.00 0.00 83 1007.0
20260901155909 84 39 5.0 7.0 0.00 0.00 0.00 83 1007.0
20260901131402 87 48 9.0 13.0 0.00 0.00 0.00 79 1004.9
20260901131259 87 53 9.0 13.0 0.00 0.00 0.00 79 1004.9
20260901131205 88 53 9.0 13.0 0.00 0.00 0.00 79 1004.9
20260901131104 88 49 7.0 10.0 0.00 0.00 0.00 79 1004.9
20260901131008 88 49 4.0 9.0 0.00 0.00 0.00 79 1004.9
20260901130901 88 84 3.0 9.0 0.00 0.00 0.00 79 1005.0
20260901130801 88 24 3.0 9.0 0.00 0.00 0.00 79 1004.9
20260901130709 88 67 4.0 9.0 0.00 0.00 0.00 79 1005.0
20260901130602 88 52 4.0 10.0 0.00 0.00 0.00 78 1005.0
20260901130504 88 57 3.0 10.0 0.00 0.00 0.00 78 1004.9
20260901130402 88 67 3.0 10.0 0.00 0.00 0.00 78 1004.9
20260901130301 88 80 4.0 10.0 0.00 0.00 0.00 78 1004.9
20260901130201 88 65 5.0 11.0 0.00 0.00 0.00 77 1005.0
20260901130011 88 69 6.0 11.0 0.00 0.00 0.00 77 1004.9
20260901125903 89 55 6.0 11.0 0.00 0.00 0.00 76 1005.0
20260901125802 89 54 8.0 11.0 0.00 0.00 0.00 76 1004.9
20260901125700 89 55 6.0 11.0 0.00 0.00 0.00 75 1004.9
20260901125602 90 56 6.0 11.0 0.00 0.00 0.00 75 1004.9
20260901125308 90 51 4.0 9.0 0.00 0.00 0.00 74 1004.8
20260901125203 91 38 4.0 9.0 0.00 0.00 0.00 73 1004.8
20260901125005 91 9 3.0 9.0 0.00 0.00 0.00 72 1004.7
20260901124904 91 30 3.0 8.0 0.00 0.00 0.00 70 1004.7
20260901124804 91 30 3.0 8.0 0.00 0.00 0.00 70 1004.7
20260901124703 91 30 3.0 8.0 0.00 0.00 0.00 70 1004.7
20260901124642 91 30 3.0 8.0 0.00 0.00 0.00 70 1004.8